Location: Astronight Observatory
(42.6003°N, 71.2981°W)
Time: 06:24:57
(UTC-04:00)

Daily predictions for brighter satellites

Satellite Brightness Start Highest point End
(mag) Time Altitude Azimuth Time Altitude Azimuth Time Altitude Azimuth
Cosmos 1408 Rocket 4.3 18:56:08 10° NNE 19:00:01 31° ENE 19:03:51 10° SE
Cosmos 2219 Rocket 3.8 19:00:10 10° SW 19:05:22 38° WNW 19:10:37 10° N
Cosmos 1437 2.9 19:03:11 10° NNW 19:06:28 80° W 19:09:44 10° S
Cosmos 1378 3.1 19:06:16 10° N 19:10:00 62° E 19:13:41 10° SSE
Cosmos 1953 3.2 19:08:08 10° SSE 19:11:31 27° E 19:14:55 10° NNE
Cosmos 2278 Rocket 3.5 19:06:15 10° NW 19:11:35 44° WSW 19:16:54 10° S
Okean 3 Rocket 3.8 19:10:34 10° N 19:15:08 80° W 19:19:40 10° S
Cosmos 1805 4.0 19:13:13 10° SSE 19:16:40 30° E 19:20:09 10° NNE
Meteor 1-28 Rocket 3.1 19:13:03 10° NNE 19:16:46 62° E 19:20:26 10° S
CENTAUR R/B 3.8 19:13:56 10° SE 19:17:17 15° ESE 19:20:49 10° ENE
H-2A R/B 4.4 19:14:53 11° ESE 19:17:19 17° ENE 19:19:55 10° NNE
Cosmos 2297 3.9 19:12:06 10° NNW 19:17:47 80° WSW 19:23:24 10° SSE
Resurs 1-3 4.2 19:14:38 10° SE 19:18:38 36° ENE 19:22:40 10° N
Meteor 1-22 Rocket 4.1 19:13:50 10° S 19:19:11 86° E 19:24:30 10° N
Resurs 01 Rocket 1.9 19:15:04 10° SE 19:19:19 47° ENE 19:23:36 10° N
NOSS 3-2 (C) 3.5 19:14:16 10° SSW 19:20:13 63° ESE 19:26:43 10° NE
SAR-Lupe-4 3.8 19:16:46 10° S 19:20:19 74° WSW 19:23:55 10° NNW
Spot 2 Rocket 3.5 19:20:29 10° SSE 19:25:25 59° ENE 19:30:23 10° N
Meteor 1-24 Rocket 4.0 19:21:23 10° NNW 19:27:01 70° W 19:32:25 10° S
Abrixas 4.2 19:25:37 10° S 19:27:37 16° SE 19:28:10 16° SE
Cosmos 1346 4.3 19:25:46 10° NNE 19:28:14 23° ENE 19:29:18 19° ESE
Cosmos 1743 Rocket 4.4 19:24:25 10° NNE 19:28:22 30° ENE 19:32:15 10° SE
Cosmos 2369 Rocket 3.5 19:25:12 10° N 19:29:34 22° NE 19:32:28 15° E
Cosmos 2056 Rocket 4.4 19:25:03 10° NNW 19:30:22 56° WSW 19:35:38 10° S
Helios 1A 3.1 19:26:58 10° SSE 19:31:03 55° ENE 19:35:09 10° N
Cosmos 1943 4.5 19:28:03 10° SE 19:31:33 17° E 19:35:05 10° ENE
ATLAS CENTAUR R/B 3.6 19:28:00 10° SW 19:33:00 78° SE 19:49:19 10° NE
Cosmos 1943 Rocket 4.1 19:30:59 10° NNE 19:33:08 12° NE 19:35:07 10° ENE
Cosmos 1603 4.0 19:29:51 10° S 19:35:13 43° ESE 19:40:38 10° NE
Nadezhda 4 Rocket 4.3 19:29:33 10° N 19:35:35 46° ENE 19:41:31 10° SSE
Cosmos 1072 Rocket 4.5 19:30:37 10° S 19:36:43 88° W 19:42:52 10° N
Cosmos 1470 3.9 19:38:37 21° E 19:39:09 22° E 19:42:09 10° NE
SJ-6B 3.8 19:38:30 10° S 19:42:21 50° W 19:46:20 10° NNW
Cosmos 1092 Rocket 4.5 19:36:44 10° N 19:42:28 37° ENE 19:47:44 12° SE
GPS 2-04 Rocket1 4.4 19:42:44 10° SSW 19:44:42 14° SSE 19:45:05 14° SSE
GP-B 4.3 19:42:29 10° NNE 19:45:59 22° E 19:46:05 22° E
Meteor 2-12 Rocket 4.4 19:42:02 10° S 19:48:06 67° E 19:54:13 10° NNE
Cosmos 1758 3.3 19:49:36 10° S 19:53:41 89° E 19:57:49 10° N
HJ-1C 3.9 19:51:14 10° S 19:54:32 60° W 19:57:53 10° NNW
USA 215 3.2 19:48:30 10° NE 19:55:04 78° SE 20:01:36 10° SW
FengYun 1-2 T 4.1 19:50:45 10° SSE 19:56:16 85° ENE 20:01:47 10° NNW
In-Cosmos 22 4.4 19:50:40 10° NNW 19:56:27 77° W 20:02:11 10° S
Cosmos 1634 Rocket 4.5 19:52:51 10° SSE 19:58:26 36° E 20:04:00 10° NNE
Cosmos 1674 3.0 19:56:56 10° N 20:00:41 45° ENE 20:01:38 37° ESE
OAO 3 Rocket 4.2 19:56:45 10° WSW 20:01:01 33° S 20:02:48 25° SE
ISS -1.4 19:59:15 10° SSW 20:00:32 18° S 20:00:32 18° S
Cosmos 1766 Rocket 4.3 19:59:49 10° NNW 20:04:07 54° W 20:08:20 10° S
ALOS 2.2 20:04:00 10° SSE 20:08:38 85° ENE 20:13:21 10° NNW
CZ-4C R/B 4.3 20:05:36 10° W 20:10:09 25° NW 20:15:12 10° NNE
H-2A R/B 4.4 20:11:46 11° NE 20:11:46 11° NE 20:12:08 10° NE
Helios 1B rocket 3.1 20:07:17 10° N 20:11:20 56° WNW 20:15:21 10° SSW
Cosmos 2034 Rocket 4.3 20:05:11 10° SSW 20:11:25 71° W 20:17:46 10° N
Meteor 1-29 3.6 20:08:28 10° N 20:11:56 58° WNW 20:15:22 10° SSW
Meteor 1-21 Rocket 4.4 20:07:59 10° NNW 20:13:33 74° W 20:19:02 10° S
ERS-1 Rocket 3.8 20:15:07 31° ENE 20:15:10 31° ENE 20:19:33 10° N
ATLAS 5 CENTAUR R/B 2.4 20:11:07 10° SW 20:15:52 59° NW 20:21:04 10° NNE
SeaSat 1 2.7 20:11:38 10° NE 20:16:20 43° ESE 20:21:01 10° S
Cosmos-2242 3.9 20:17:59 10° SSW 20:22:13 51° W 20:26:31 10° N
CZ-4B DEB 3.6 20:23:55 35° SSW 20:24:57 52° W 20:28:09 10° NNW
Cosmos 839 Rocket 4.4 20:18:01 10° NNW 20:25:47 58° NE 20:28:08 39° ESE
SL-16 R/B 4.2 20:27:19 10° WSW 20:32:11 28° NW 20:37:04 10° N
Cosmos 2151 3.5 20:30:12 10° N 20:33:20 43° NNE 20:33:20 43° NNE
CZ-2D R/B 3.8 20:33:52 35° SSW 20:35:16 56° W 20:39:08 10° NNW
Cosmos 1842 Rocket 3.6 20:33:02 10° SSW 20:37:21 74° W 20:41:43 10° N
Cosmos 1500 Rocket 3.8 20:33:25 10° NNW 20:37:50 69° W 20:39:25 38° SSW
SL-8 R/B 3.6 20:37:31 10° SW 20:42:04 73° S 20:42:04 73° S
Cosmos 1627 Rocket 4.4 20:36:59 10° N 20:43:11 71° E 20:44:49 50° SE
Gbstr 26 Del rocket 4.2 20:43:08 10° SW 20:45:51 35° SSW 20:45:51 35° SSW
H-2A R/B 4.2 20:50:09 29° SW 20:51:21 36° W 20:54:59 10° NNW
Cosmos 1331 Rocket 4.5 20:47:17 10° N 20:51:40 47° NE 20:51:40 47° NE
SJ-11-01 4.5 20:56:41 63° N 20:56:41 63° N 21:00:39 10° NNW
Resurs 01 Rocket 4.4 20:53:08 10° SW 20:56:02 17° W 20:58:56 10° NW
CENTAUR R/B 2.4 21:00:40 10° SW 21:06:45 89° NW 21:13:40 10° NE
BREEZE-M DEB (TANK) 4.4 21:04:28 10° W 21:14:00 48° NNW 21:14:54 43° NNE
Cosmos 2369 Rocket 2.4 21:08:28 10° NNW 21:14:03 63° WSW 21:14:17 62° WSW
Cosmos 1943 3.4 21:09:22 10° SSW 21:14:59 68° WNW 21:20:36 10° NNE
Envisat 3.5 21:16:18 54° NNW 21:16:18 54° NNW 21:20:13 10° NNW
Cosmos 1943 Rocket 2.8 21:12:28 10° NNW 21:16:39 47° N 21:16:39 47° N
Cosmos 2263 4.3 21:13:03 10° NNW 21:18:21 73° WNW 21:18:21 73° WNW
H-2A R/B 4.5 21:22:24 11° NNE 21:22:24 11° NNE 21:22:43 10° NNE
Cosmos 2279 Rocket 4.0 21:22:58 70° N 21:22:58 70° N 21:28:25 10° N
Cosmos 1655 Rocket 4.1 21:20:01 10° NNW 21:26:12 69° W 21:26:29 68° WSW
USA 215 4.3 21:33:35 19° NNE 21:37:45 40° NNW 21:43:45 10° W
SeaSat 1 4.3 21:49:29 10° N 21:53:41 28° NW 21:57:52 10° WSW
CENTAUR R/B 4.5 22:53:16 10° W 22:58:28 25° NNW 23:04:11 10° NNE
